www.pogodaiklimat.ru

Погода и климат >> Архив погоды >> Ирак >> Najaf


ПОГОДА в Najaf

  • Прогноз погоды в Najaf
  • Монитор погоды в Najaf
  • Климат города

АРХИВ ПОГОДЫ в Najaf

Время (UTC), дата Ветер
(напр.,м/с)
 
Видим.   Явления Облачность Т
(С)
Тd
(С)
f
(%)
Тe
(С)
Тes
(С)
Комфортность P
(гПа)
Po
(гПа)
Тmin
(С)
Tmax
(С)
R
(мм)
R24
(мм)
S
(см)
00 14.01 штиль 0 10 км ясно +7.2 +3.4 77 +6 +6 1018.2 1018.0
03 14.01 штиль 0 10 км ясно +5.2 +1.1 75 +4 +4 1017.5 1018.0
09 14.01 ЮВ 3 10 км ясно +19.0 -0.3 27 +19 +26 1014.5 1015.0
12 14.01 штиль 0 10 км ясно +23.4 -4.3 15 +21 +26 комфорт 1012.5 1013.0
15 14.01 штиль 0 10 км ясно +18.4 0.0 29 +18 +18 1014.9 1015.0
18 14.01 штиль 0 8000 м ясно +16.6 +3.3 41 +17 +17 1018.3 1018.0 +23.8
21 14.01 штиль 0 10 км ясно +13.0 +4.2 55 +13 +13 1019.8 1020.0
03 15.01 штиль 0 10 км ясно +7.7 +5.2 84 +7 +7 1022.0 1022.0
06 15.01 штиль 0 10 км 3/3 840 м
[Cu hum]
+11.0 +2.9 57 +11 +14 1024.3 1024.0 +7.0
09 15.01 штиль 0 10 км 4/4 840 м
[Cu hum]
+15.6 +3.3 44 +16 +22 1024.4 1024.0
12 15.01 штиль 0 10 км ясно +18.8 +3.7 37 +19 +23 1022.8 1023.0
15 15.01 штиль 0 10 км ясно +16.9 +4.9 45 +17 +17 1023.7 1024.0
21 15.01 штиль 0 10 км ясно +10.5 +5.9 73 +10 +10 1025.5 1026.0
00 16.01 штиль 0 10 км ясно +8.6 +4.5 75 +8 +8 1025.6 1026.0
06 16.01 штиль 0 10 км ясно +9.2 +4.1 70 +9 +13 1027.3 1027.0 +5.0
09 16.01 штиль 0 10 км ясно +17.7 +5.2 44 +18 +29 1026.5 1027.0
12 16.01 штиль 0 10 км ясно +20.6 +4.5 35 +21 +25 комфорт 1023.7 1024.0
15 16.01 штиль 0 10 км 3/3 840 м
[Cu med, cong]
+16.9 +5.2 46 +17 +17 1023.2 1023.0
18 16.01 штиль 0 10 км 3/3 840 м
[Cu med, cong]
+14.5 +5.4 54 +14 +14 1022.9 1023.0 +21.0
21 16.01 штиль 0 10 км ясно +12.8 +5.7 62 +13 +13 1022.5 1023.0
00 17.01 штиль 0 10 км ясно +10.6 +5.8 72 +10 +10 1021.4 1021.0
03 17.01 штиль 0 10 км ясно +9.5 +6.7 83 +9 +9 1019.0 1019.0
06 17.01 штиль 0 10 км ясно +11.0 +5.5 69 +11 +15 1021.5 1022.0 +6.5
09 17.01 штиль 0 10 км 10/3
[Cu hum Cs]
+17.0 +5.3 46 +17 +23 1020.0 1020.0
12 17.01 ЮВ 2 10 км 9/4
[Cu hum Cs]
+17.8 +5.9 46 +18 +20 1017.8 1018.0
15 17.01 штиль 0 10 км 5/0
[Ci sp]
+15.8 +4.4 47 +16 +16 1017.8 1018.0
18 17.01 штиль 0 10 км 3/0
[Ci sp]
+12.7 +6.8 67 +12 +12 1018.7 1019.0 +18.5
21 17.01 штиль 0 10 км ясно +11.5 +4.4 62 +11 +11 1018.4 1018.0
06 18.01 штиль 0 10 км 3/0
[Ci sp]
+12.4 +4.2 57 +12 +16 1020.4 1020.0 +7.9
09 18.01 штиль 0 10 км ясно +19.0 +3.4 35 +19 +30 1019.1 1019.0
12 18.01 штиль 0 10 км ясно +21.4 +1.7 27 +21 +26 комфорт 1017.8 1018.0
15 18.01 штиль 0 10 км ясно +18.0 +3.1 37 +18 +18 1016.5 1017.0
18 18.01 штиль 0 10 км ясно +16.0 +3.0 42 +16 +16 1016.0 1016.0 +21.8
21 18.01 В 5 10 км ясно +14.8 +2.4 43 +14 +14 1014.0 1014.0
00 19.01 В 5 10 км ясно +12.0 +2.5 52 +10 +10 1011.9 1012.0
03 19.01 штиль 0 10 км ясно +9.0 +1.4 59 +9 +9 1011.5 1012.0
12 19.01 ЮЗ 9 2000 м пыльный позёмок ясно +19.0 +1.8 32 +18 +19 1009.8 1010.0
15 19.01 ЮЗ 12 1000 м пыльный позёмок ясно +16.8 +2.0 37 +15 +15 1012.7 1013.0
21 19.01 ЮЗ 7 1000 м пыльный позёмок ясно +13.8 +2.4 46 +12 +12 1016.6 1017.0
00 20.01 ЮЗ 6 2000 м пыльный позёмок ясно +12.0 +2.8 53 +10 +10 1017.5 1018.0
06 20.01 З 3 8000 м пыль 10/10 840 м
[Sc]
+9.6 +2.2 60 +8 +8 1022.1 1022.0 +9.0
09 20.01 З 3 8000 м пыль 10/10 840 м
[Sc]
+14.7 +2.8 45 +14 +14 1022.5 1023.0
12 20.01 ЮЗ 9 2000 м пыльный позёмок ясно +15.0 +4.1 48 +13 +13 1021.9 1022.0
15 20.01 З 5 2000 м пыльный позёмок ясно +13.7 +4.8 55 +12 +12 1023.9 1024.0
18 20.01 штиль 0 6000 м пыль ясно +10.7 +4.7 66 +10 +10 1025.8 1026.0 +15.4
21 20.01 штиль 0 8000 м пыль ясно +8.9 +4.6 74 +8 +8 1026.6 1027.0

 

Местоположение метеостанции Najaf (Ирак): широта 31.98 долгота 44.32 высота над уровнем моря 32 м.

В архиве по умолчанию представлена погода в Najaf за последнюю неделю. Архивные данные за месяц целиком и за предыдущие месяцы, начиная с января 2011 года, Вы можете получить, выбрав интересующий диапазон дат из раскрывающегося списка и нажав кнопку "Ввод!".

Внимание! Время в таблицах - всемирное. Для получения местного времени необходимо прибавить поправку, которая в Najaf равна 3 ч.

Смотрите также архив погоды в соседних городах и на ближайших метеорологических станциях:

Погода в Hella (Ирак) (54 км)
Погода в Diwaniya (Ирак) (62 км)
Погода в Karbalaa (Ирак) (77 км)
Погода в Samawah (Ирак) (118 км)
Погода в Azizyah (Ирак) (126 км)
Погода в Baghdad (Ирак) (139 км)
Погода в Ubaydah Bin Al Jarrah (Ирак) (146 км)
Погода в Kut-Al-Hai (Ирак) (164 км)
Погода в Rifai (Ирак) (171 км)
Погода в Ayn Al-Tamar (Ирак) (179 км)

Пояснения к столбцам:

Ветер - указаны скорость ветра в м/с - средняя за 10 мин, порывы в срок и между сроками (в фигурных скобках) и направление, откуда дует ветер: С - северный, СВ - северо-восточный, В - восточный, ЮВ - юго-восточный, Ю - южный, ЮЗ - юго-западный, З - западный, СЗ - северо-западный.
Видимость - горизонтальная дальность видимости в метрах или километрах. При видимости от 1 до 10 км при отсутствии осадков обычно наблюдается дымка, при ухудшении видимости до 1 км и менее - туман. В сухую погоду видимость может ухудшаться дымом, пылью или мглою.
Явления - указаны атмосферные явления, наблюдавшиеся в срок или в последний час перед сроком; фигурными скобками обозначены явления, наблюдавшиеся между сроками (за 1-3 часа до срока); квадратными скобками обозначены град или гололедные отложения с указанием их диаметра в мм.
Облачность - указаны через наклонную черту общая и нижняя облачность в баллах и высота нижней границы облаков в метрах; квадратными скобками обозначены формы облаков: Ci - перистые, Cs - перисто-слоистые, Cc - перисто-кучевые, Ac - высококучевые, As - высокослоистые, Sc - слоисто-кучевые, Ns - слоисто-дождевые, Cu - кучевые, Cb - кучево-дождевые. Подробнее классификацию облаков см. в Атласе облаков (PDF).
T - Температура воздуха - температура, измеренная на высоте 2 м над землей.
Td - Температура точки росы - температура, при понижении до которой содержащийся в воздухе водяной пар достигнет насыщения.
f - Относительная влажность воздуха - влажноcть воздуха, измеренная на высоте 2 м над землей.
Te - Эффективная температура - температура, которую ощущает одетый по сезону человек в тени. Характеристика душности погоды. При расчете учитывается влияние влажности воздуха и скорости ветра на теплоощущения человека.
Tes - Эффективная температура на солнце - температура, которую ощущает человек, с поправкой на солнечный нагрев. Характеристика знойности погоды. Зависит от высоты солнца над горизонтом, облачности и скорости ветра. Ночью, в пасмурную погоду, а также при ветре 12 м/с и более поправка равна нулю.
P - Атмосферное давление - приведенное к уровню моря атмосферное давление.
Po - Атмосферное давление - измеренное на уровне метеостанции атмосферное давление.
Tmin - Минимальная температура - минимум температуры воздуха на высоте 2 м над землей.
Tmax - Максимальная температура - максимум температуры воздуха на высоте 2 м над землей.
R - Количество осадков - Количество выпавших осадков за период времени, мм. При наведении курсора мыши на число - период времени, за который выпало указанное количество осадков.
R24 - Количество осадков - Количество выпавших осадков за 24 часа, мм.
S - Снежный покров - Высота снежного покрова, см. При наведении курсора мыши на число - состояние снежного покрова и степень покрытия местности в баллах.